TimePST,TemperatureF,Dew PointF,Humidity,Sea Level PressureIn,VisibilityMPH,Wind Direction,Wind SpeedMPH,Gust SpeedMPH,PrecipitationIn,Events,Conditions,WindDirDegrees,DateUTC
12:15 AM,6.8,3.2,85,30.41,1.5,Calm,Calm,-,N/A,,Clear,0,2013-01-20 08:15:00
12:35 AM,5.0,-0.4,78,30.41,1.2,Calm,Calm,-,N/A,,Clear,0,2013-01-20 08:35:00
12:55 AM,6.8,3.2,85,30.41,4.0,Calm,Calm,-,N/A,,Clear,0,2013-01-20 08:55:00
1:15 AM,5.0,1.4,85,30.41,5.0,Calm,Calm,-,N/A,,Clear,0,2013-01-20 09:15:00
1:35 AM,6.8,1.4,79,30.41,1.8,Calm,Calm,-,N/A,,Clear,0,2013-01-20 09:35:00
1:55 AM,1.4,-0.4,92,30.41,0.8,Calm,Calm,-,N/A,,Mist,0,2013-01-20 09:55:00
2:15 AM,5.0,-0.4,78,30.41,6.0,Calm,Calm,-,N/A,,Clear,0,2013-01-20 10:15:00
2:35 AM,3.2,-0.4,85,30.41,7.0,Calm,Calm,-,N/A,,Clear,0,2013-01-20 10:35:00
2:55 AM,-0.4,-2.2,92,30.40,10.0,Calm,Calm,-,N/A,,Clear,0,2013-01-20 10:55:00
3:15 AM,5.0,-0.4,78,30.40,2.5,Calm,Calm,-,N/A,,Clear,0,2013-01-20 11:15:00
3:35 AM,-0.4,-4.0,85,30.40,0.5,Calm,Calm,-,N/A,Fog,Light Freezing Fog,0,2013-01-20 11:35:00
3:55 AM,-0.4,-4.0,85,30.40,0.2,Calm,Calm,-,N/A,Fog,Light Freezing Fog,0,2013-01-20 11:55:00
4:15 AM,-0.4,-2.2,92,30.40,0.8,Calm,Calm,-,N/A,,Mist,0,2013-01-20 12:15:00
4:35 AM,-0.4,-4.0,85,30.40,0.2,Calm,Calm,-,N/A,,Haze,0,2013-01-20 12:35:00
4:55 AM,-0.4,-5.8,78,30.40,1.2,Calm,Calm,-,N/A,,Haze,0,2013-01-20 12:55:00
5:15 AM,-0.4,-4.0,85,30.40,10.0,Calm,Calm,-,N/A,,Clear,0,2013-01-20 13:15:00
5:35 AM,-0.4,-4.0,85,30.40,10.0,Calm,Calm,-,N/A,,Clear,0,2013-01-20 13:35:00
6:55 AM,-2.2,-7.6,78,30.41,10.0,Calm,Calm,-,N/A,Fog,Shallow Fog,0,2013-01-20 14:55:00
7:55 AM,-0.4,-4.0,85,30.41,8.0,Calm,Calm,-,N/A,,Partly Cloudy,0,2013-01-20 15:55:00
8:50 AM,1.4,-2.2,85,30.43,10.0,Calm,Calm,-,N/A,,Clear,0,2013-01-20 16:50:00
9:55 AM,6.8,3.2,85,30.44,10.0,Calm,Calm,-,N/A,,Clear,0,2013-01-20 17:55:00
10:50 AM,12.2,8.6,85,30.42,10.0,Calm,Calm,-,N/A,,Clear,0,2013-01-20 18:50:00
11:45 AM,17.6,14.0,86,30.40,10.0,Calm,Calm,-,N/A,,Clear,0,2013-01-20 19:45:00
12:50 PM,26.6,8.6,47,30.36,10.0,Calm,Calm,-,N/A,,Clear,0,2013-01-20 20:50:00
1:45 PM,28.4,12.2,51,30.34,10.0,Calm,Calm,-,N/A,,Clear,0,2013-01-20 21:45:00
2:45 PM,32.0,15.8,51,30.33,10.0,Calm,Calm,-,N/A,,Clear,0,2013-01-20 22:45:00
3:45 PM,35.6,12.2,38,30.33,10.0,Calm,Calm,-,N/A,,Clear,0,2013-01-20 23:45:00
4:45 PM,32.0,10.4,41,30.34,10.0,Calm,Calm,-,N/A,,Clear,0,2013-01-21 00:45:00
4:55 PM,32.0,10.4,41,30.34,10.0,Calm,Calm,-,N/A,,Clear,0,2013-01-21 00:55:00
5:15 PM,28.4,12.2,51,30.34,10.0,Calm,Calm,-,N/A,,Clear,0,2013-01-21 01:15:00
5:35 PM,23.0,10.4,59,30.34,10.0,Calm,Calm,-,N/A,,Clear,0,2013-01-21 01:35:00
5:55 PM,24.8,10.4,54,30.35,10.0,Calm,Calm,-,N/A,,Clear,0,2013-01-21 01:55:00
6:15 PM,19.4,10.4,68,30.36,10.0,Calm,Calm,-,N/A,Snow,Light Snow,0,2013-01-21 02:15:00
6:35 PM,23.0,12.2,63,30.36,10.0,Calm,Calm,-,N/A,Snow,Light Snow,0,2013-01-21 02:35:00
6:55 PM,19.4,10.4,68,30.37,10.0,Calm,Calm,-,N/A,Snow,Light Snow,0,2013-01-21 02:55:00
7:15 PM,17.6,10.4,73,30.37,10.0,Calm,Calm,-,N/A,,Clear,0,2013-01-21 03:15:00
7:35 PM,19.4,10.4,68,30.37,10.0,Calm,Calm,-,N/A,,Clear,0,2013-01-21 03:35:00
7:55 PM,14.0,8.6,79,30.38,10.0,South,3.5,-,N/A,,Clear,170,2013-01-21 03:55:00
8:15 PM,15.8,10.4,79,30.38,10.0,Calm,Calm,-,N/A,,Clear,0,2013-01-21 04:15:00
8:35 PM,15.8,10.4,79,30.38,10.0,Calm,Calm,-,N/A,,Clear,0,2013-01-21 04:35:00
8:55 PM,14.0,8.6,79,30.38,10.0,Calm,Calm,-,N/A,,Clear,0,2013-01-21 04:55:00
9:15 PM,10.4,6.8,85,30.39,10.0,WSW,3.5,-,N/A,,Clear,250,2013-01-21 05:15:00
9:35 PM,15.8,8.6,73,30.39,10.0,Calm,Calm,-,N/A,,Clear,0,2013-01-21 05:35:00
9:55 PM,14.0,8.6,79,30.39,10.0,Calm,Calm,-,N/A,,Clear,0,2013-01-21 05:55:00
10:15 PM,10.4,6.8,85,30.39,10.0,Calm,Calm,-,N/A,,Clear,0,2013-01-21 06:15:00
10:35 PM,10.4,8.6,92,30.39,10.0,Calm,Calm,-,N/A,,Clear,0,2013-01-21 06:35:00
10:55 PM,10.4,8.6,92,30.39,10.0,Calm,Calm,-,N/A,,Clear,0,2013-01-21 06:55:00
11:15 PM,6.8,5.0,92,30.38,8.0,SW,4.6,-,N/A,,Clear,230,2013-01-21 07:15:00
11:35 PM,10.4,6.8,85,30.37,10.0,Calm,Calm,-,N/A,,Clear,0,2013-01-21 07:35:00
11:55 PM,6.8,3.2,85,30.37,10.0,Calm,Calm,-,N/A,,Clear,0,2013-01-21 07:55:00